iso_date,epoch_date,Year,Hour,Min,DOY,POS_DOY,Lat,Lon,BP,Ts,Ta,has_bp,has_ts,has_ta,BuoyID,Buoy_Type,Buoy_Owner,Logistics,Hemisphere
2019-06-08T06:00:00Z,1559973600,2019,6,0,159.25,159.25,65.263,-33.006,1024.0,7.65,-999.0,yes,yes,no,300234065716150,BD2GHI,AOML,BJARNI_SAEMUN,North
2019-06-08T07:00:28Z,1559977229,2019,7,0,159.292,159.292,65.26,-33.024,1024.3,7.65,-999.0,yes,yes,no,300234065716150,BD2GHI,AOML,BJARNI_SAEMUN,North
2019-06-08T07:59:31Z,1559980771,2019,8,0,159.333,159.333,65.256,-33.038,1024.8,7.63,-999.0,yes,yes,no,300234065716150,BD2GHI,AOML,BJARNI_SAEMUN,North
2019-06-08T09:01:26Z,1559984486,2019,9,1,159.376,159.376,65.253,-33.05,1025.2,7.66,-999.0,yes,yes,no,300234065716150,BD2GHI,AOML,BJARNI_SAEMUN,North
2019-06-08T10:00:28Z,1559988029,2019,10,0,159.417,159.417,65.25,-33.064,1025.3,7.67,-999.0,yes,yes,no,300234065716150,BD2GHI,AOML,BJARNI_SAEMUN,North
2019-06-08T10:59:31Z,1559991571,2019,11,0,159.458,159.458,65.245,-33.076,1025.7,7.69,-999.0,yes,yes,no,300234065716150,BD2GHI,AOML,BJARNI_SAEMUN,North
2019-06-08T12:00:00Z,1559995200,2019,12,0,159.5,159.5,65.24,-33.089,1026.1,7.72,-999.0,yes,yes,no,300234065716150,BD2GHI,AOML,BJARNI_SAEMUN,North
2019-06-08T13:00:28Z,1559998829,2019,13,0,159.542,159.542,65.236,-33.105,1026.2,7.73,-999.0,yes,yes,no,300234065716150,BD2GHI,AOML,BJARNI_SAEMUN,North
2019-06-08T13:59:31Z,1560002371,2019,14,0,159.583,159.583,65.234,-33.122,1026.4,7.77,-999.0,yes,yes,no,300234065716150,BD2GHI,AOML,BJARNI_SAEMUN,North
2019-06-08T15:00:00Z,1560006000,2019,15,0,159.625,159.625,65.234,-33.138,1026.5,7.78,-999.0,yes,yes,no,300234065716150,BD2GHI,AOML,BJARNI_SAEMUN,North
2019-06-08T16:00:28Z,1560009629,2019,16,0,159.667,159.667,65.234,-33.151,1026.6,7.83,-999.0,yes,yes,no,300234065716150,BD2GHI,AOML,BJARNI_SAEMUN,North
2019-06-08T16:59:31Z,1560013171,2019,17,0,159.708,159.708,65.234,-33.163,1026.7,7.85,-999.0,yes,yes,no,300234065716150,BD2GHI,AOML,BJARNI_SAEMUN,North
2019-06-08T18:00:00Z,1560016800,2019,18,0,159.75,159.75,65.232,-33.175,1026.7,7.9,-999.0,yes,yes,no,300234065716150,BD2GHI,AOML,BJARNI_SAEMUN,North
2019-06-08T19:00:28Z,1560020429,2019,19,0,159.792,159.792,65.233,-33.188,1026.8,7.93,-999.0,yes,yes,no,300234065716150,BD2GHI,AOML,BJARNI_SAEMUN,North
2019-06-08T19:59:31Z,1560023971,2019,20,0,159.833,159.833,65.231,-33.197,1027.0,7.9,-999.0,yes,yes,no,300234065716150,BD2GHI,AOML,BJARNI_SAEMUN,North
2019-06-08T21:00:00Z,1560027600,2019,21,0,159.875,159.875,65.227,-33.21,1026.4,7.86,-999.0,yes,yes,no,300234065716150,BD2GHI,AOML,BJARNI_SAEMUN,North
2019-06-08T22:00:28Z,1560031229,2019,22,0,159.917,159.917,65.223,-33.224,1026.8,7.8,-999.0,yes,yes,no,300234065716150,BD2GHI,AOML,BJARNI_SAEMUN,North
2019-06-08T22:59:31Z,1560034771,2019,23,0,159.958,159.958,65.219,-33.24,1027.0,7.78,-999.0,yes,yes,no,300234065716150,BD2GHI,AOML,BJARNI_SAEMUN,North
2019-06-09T00:00:00Z,1560038400,2019,0,0,160.0,160.0,65.216,-33.255,1026.9,7.75,-999.0,yes,yes,no,300234065716150,BD2GHI,AOML,BJARNI_SAEMUN,North
2019-06-09T01:00:28Z,1560042029,2019,1,0,160.042,160.042,65.212,-33.27,1027.0,7.77,-999.0,yes,yes,no,300234065716150,BD2GHI,AOML,BJARNI_SAEMUN,North
2019-06-09T01:59:31Z,1560045571,2019,2,0,160.083,160.083,65.209,-33.284,1027.1,7.76,-999.0,yes,yes,no,300234065716150,BD2GHI,AOML,BJARNI_SAEMUN,North
2019-06-09T03:00:00Z,1560049200,2019,3,0,160.125,160.125,65.207,-33.3,1027.3,7.75,-999.0,yes,yes,no,300234065716150,BD2GHI,AOML,BJARNI_SAEMUN,North
2019-06-09T04:00:28Z,1560052829,2019,4,0,160.167,160.167,65.206,-33.315,1027.3,7.74,-999.0,yes,yes,no,300234065716150,BD2GHI,AOML,BJARNI_SAEMUN,North
2019-06-09T04:59:31Z,1560056371,2019,5,0,160.208,160.208,65.203,-33.336,1027.4,7.74,-999.0,yes,yes,no,300234065716150,BD2GHI,AOML,BJARNI_SAEMUN,North
2019-06-09T06:00:00Z,1560060000,2019,6,0,160.25,160.25,65.205,-33.351,1027.5,7.74,-999.0,yes,yes,no,300234065716150,BD2GHI,AOML,BJARNI_SAEMUN,North
2019-06-09T07:00:28Z,1560063629,2019,7,0,160.292,160.292,65.204,-33.363,1027.5,7.74,-999.0,yes,yes,no,300234065716150,BD2GHI,AOML,BJARNI_SAEMUN,North
2019-06-09T07:59:31Z,1560067171,2019,8,0,160.333,160.333,65.203,-33.37,1028.0,7.73,-999.0,yes,yes,no,300234065716150,BD2GHI,AOML,BJARNI_SAEMUN,North
2019-06-09T09:00:00Z,1560070800,2019,9,0,160.375,160.375,65.202,-33.377,1028.2,7.74,-999.0,yes,yes,no,300234065716150,BD2GHI,AOML,BJARNI_SAEMUN,North
2019-06-09T10:00:28Z,1560074429,2019,10,0,160.417,160.417,65.197,-33.384,1028.4,7.76,-999.0,yes,yes,no,300234065716150,BD2GHI,AOML,BJARNI_SAEMUN,North
2019-06-09T10:59:31Z,1560077971,2019,11,0,160.458,160.458,65.194,-33.395,1028.4,7.77,-999.0,yes,yes,no,300234065716150,BD2GHI,AOML,BJARNI_SAEMUN,North
2019-06-09T12:00:00Z,1560081600,2019,12,0,160.5,160.5,65.188,-33.409,1028.6,7.8,-999.0,yes,yes,no,300234065716150,BD2GHI,AOML,BJARNI_SAEMUN,North
2019-06-09T13:00:28Z,1560085229,2019,13,0,160.542,160.542,65.183,-33.422,1028.7,7.83,-999.0,yes,yes,no,300234065716150,BD2GHI,AOML,BJARNI_SAEMUN,North
2019-06-09T13:59:31Z,1560088771,2019,14,0,160.583,160.583,65.179,-33.436,1028.6,7.87,-999.0,yes,yes,no,300234065716150,BD2GHI,AOML,BJARNI_SAEMUN,North
2019-06-09T15:00:00Z,1560092400,2019,15,0,160.625,160.625,65.176,-33.45,1028.8,7.93,-999.0,yes,yes,no,300234065716150,BD2GHI,AOML,BJARNI_SAEMUN,North
2019-06-09T16:00:28Z,1560096029,2019,16,0,160.667,160.667,65.174,-33.466,1028.9,7.94,-999.0,yes,yes,no,300234065716150,BD2GHI,AOML,BJARNI_SAEMUN,North
2019-06-09T16:59:31Z,1560099571,2019,17,0,160.708,160.708,65.173,-33.48,1029.0,7.98,-999.0,yes,yes,no,300234065716150,BD2GHI,AOML,BJARNI_SAEMUN,North
2019-06-09T18:00:00Z,1560103200,2019,18,0,160.75,160.75,65.172,-33.493,1028.7,7.99,-999.0,yes,yes,no,300234065716150,BD2GHI,AOML,BJARNI_SAEMUN,North
2019-06-09T19:00:28Z,1560106829,2019,19,0,160.792,160.792,65.173,-33.51,1028.4,7.99,-999.0,yes,yes,no,300234065716150,BD2GHI,AOML,BJARNI_SAEMUN,North
2019-06-09T19:59:31Z,1560110371,2019,20,0,160.833,160.833,65.173,-33.524,1028.5,7.97,-999.0,yes,yes,no,300234065716150,BD2GHI,AOML,BJARNI_SAEMUN,North
2019-06-09T21:00:00Z,1560114000,2019,21,0,160.875,160.875,65.173,-33.534,1028.2,7.98,-999.0,yes,yes,no,300234065716150,BD2GHI,AOML,BJARNI_SAEMUN,North
2019-06-09T22:00:28Z,1560117629,2019,22,0,160.917,160.917,65.172,-33.546,1028.3,7.97,-999.0,yes,yes,no,300234065716150,BD2GHI,AOML,BJARNI_SAEMUN,North
2019-06-09T22:59:31Z,1560121171,2019,23,0,160.958,160.958,65.166,-33.558,1028.1,7.93,-999.0,yes,yes,no,300234065716150,BD2GHI,AOML,BJARNI_SAEMUN,North
2019-06-10T00:00:00Z,1560124800,2019,0,0,161.0,161.0,65.162,-33.569,1028.5,7.91,-999.0,yes,yes,no,300234065716150,BD2GHI,AOML,BJARNI_SAEMUN,North
2019-06-10T01:00:28Z,1560128429,2019,1,0,161.042,161.042,65.158,-33.582,1028.3,7.9,-999.0,yes,yes,no,300234065716150,BD2GHI,AOML,BJARNI_SAEMUN,North
2019-06-10T01:59:31Z,1560131971,2019,2,0,161.083,161.083,65.155,-33.598,1028.3,7.89,-999.0,yes,yes,no,300234065716150,BD2GHI,AOML,BJARNI_SAEMUN,North
2019-06-10T03:00:00Z,1560135600,2019,3,0,161.125,161.125,65.153,-33.615,1028.2,7.89,-999.0,yes,yes,no,300234065716150,BD2GHI,AOML,BJARNI_SAEMUN,North
2019-06-10T04:00:28Z,1560139229,2019,4,0,161.167,161.167,65.153,-33.633,1027.9,7.88,-999.0,yes,yes,no,300234065716150,BD2GHI,AOML,BJARNI_SAEMUN,North
2019-06-10T04:59:31Z,1560142771,2019,5,0,161.208,161.208,65.152,-33.649,1027.6,7.86,-999.0,yes,yes,no,300234065716150,BD2GHI,AOML,BJARNI_SAEMUN,North
2019-06-10T06:00:00Z,1560146400,2019,6,0,161.25,161.25,65.15,-33.663,1027.7,7.87,-999.0,yes,yes,no,300234065716150,BD2GHI,AOML,BJARNI_SAEMUN,North
2019-06-10T07:00:28Z,1560150029,2019,7,0,161.292,161.292,65.15,-33.676,1027.6,7.86,-999.0,yes,yes,no,300234065716150,BD2GHI,AOML,BJARNI_SAEMUN,North
2019-06-10T07:59:31Z,1560153571,2019,8,0,161.333,161.333,65.149,-33.687,1028.1,7.87,-999.0,yes,yes,no,300234065716150,BD2GHI,AOML,BJARNI_SAEMUN,North
2019-06-10T09:00:00Z,1560157200,2019,9,0,161.375,161.375,65.152,-33.695,1027.9,7.9,-999.0,yes,yes,no,300234065716150,BD2GHI,AOML,BJARNI_SAEMUN,North
2019-06-10T10:00:28Z,1560160829,2019,10,0,161.417,161.417,65.149,-33.706,1028.0,7.93,-999.0,yes,yes,no,300234065716150,BD2GHI,AOML,BJARNI_SAEMUN,North
2019-06-10T10:59:31Z,1560164371,2019,11,0,161.458,161.458,65.148,-33.713,1028.3,8.0,-999.0,yes,yes,no,300234065716150,BD2GHI,AOML,BJARNI_SAEMUN,North
2019-06-10T12:00:00Z,1560168000,2019,12,0,161.5,161.5,65.145,-33.718,1028.6,8.05,-999.0,yes,yes,no,300234065716150,BD2GHI,AOML,BJARNI_SAEMUN,North
2019-06-10T13:00:28Z,1560171629,2019,13,0,161.542,161.542,65.141,-33.726,1028.9,8.14,-999.0,yes,yes,no,300234065716150,BD2GHI,AOML,BJARNI_SAEMUN,North
2019-06-10T13:59:31Z,1560175171,2019,14,0,161.583,161.583,65.134,-33.734,1029.0,8.79,-999.0,yes,yes,no,300234065716150,BD2GHI,AOML,BJARNI_SAEMUN,North
2019-06-10T15:00:00Z,1560178800,2019,15,0,161.625,161.625,65.128,-33.744,1028.7,8.38,-999.0,yes,yes,no,300234065716150,BD2GHI,AOML,BJARNI_SAEMUN,North
2019-06-10T16:00:28Z,1560182429,2019,16,0,161.667,161.667,65.122,-33.757,1029.1,8.77,-999.0,yes,yes,no,300234065716150,BD2GHI,AOML,BJARNI_SAEMUN,North
2019-06-10T16:59:31Z,1560185971,2019,17,0,161.708,161.708,65.117,-33.77,1029.3,8.96,-999.0,yes,yes,no,300234065716150,BD2GHI,AOML,BJARNI_SAEMUN,North
2019-06-10T18:00:00Z,1560189600,2019,18,0,161.75,161.75,65.114,-33.781,1029.3,8.71,-999.0,yes,yes,no,300234065716150,BD2GHI,AOML,BJARNI_SAEMUN,North
2019-06-10T19:00:28Z,1560193229,2019,19,0,161.792,161.792,65.112,-33.8,1029.6,8.4,-999.0,yes,yes,no,300234065716150,BD2GHI,AOML,BJARNI_SAEMUN,North
2019-06-10T19:59:31Z,1560196771,2019,20,0,161.833,161.833,65.112,-33.821,1029.7,8.37,-999.0,yes,yes,no,300234065716150,BD2GHI,AOML,BJARNI_SAEMUN,North
2019-06-10T21:00:00Z,1560200400,2019,21,0,161.875,161.875,65.112,-33.836,1029.6,8.27,-999.0,yes,yes,no,300234065716150,BD2GHI,AOML,BJARNI_SAEMUN,North
2019-06-10T22:00:28Z,1560204029,2019,22,1,161.917,161.917,65.112,-33.849,1030.0,8.21,-999.0,yes,yes,no,300234065716150,BD2GHI,AOML,BJARNI_SAEMUN,North
2019-06-10T22:59:31Z,1560207571,2019,23,0,161.958,161.958,65.111,-33.864,1030.2,8.17,-999.0,yes,yes,no,300234065716150,BD2GHI,AOML,BJARNI_SAEMUN,North
2019-06-11T00:00:00Z,1560211200,2019,0,0,162.0,162.0,65.11,-33.88,1030.5,8.16,-999.0,yes,yes,no,300234065716150,BD2GHI,AOML,BJARNI_SAEMUN,North
2019-06-11T01:00:28Z,1560214829,2019,1,0,162.042,162.042,65.108,-33.893,1030.5,8.14,-999.0,yes,yes,no,300234065716150,BD2GHI,AOML,BJARNI_SAEMUN,North
2019-06-11T02:00:57Z,1560218458,2019,2,1,162.084,162.084,65.104,-33.906,1030.9,8.08,-999.0,yes,yes,no,300234065716150,BD2GHI,AOML,BJARNI_SAEMUN,North
2019-06-11T03:00:00Z,1560222000,2019,3,0,162.125,162.125,65.106,-33.925,1031.3,8.03,-999.0,yes,yes,no,300234065716150,BD2GHI,AOML,BJARNI_SAEMUN,North
2019-06-11T04:00:28Z,1560225629,2019,4,0,162.167,162.167,65.105,-33.935,1030.7,8.0,-999.0,yes,yes,no,300234065716150,BD2GHI,AOML,BJARNI_SAEMUN,North
2019-06-11T04:59:31Z,1560229171,2019,5,0,162.208,162.208,65.104,-33.947,1030.7,7.98,-999.0,yes,yes,no,300234065716150,BD2GHI,AOML,BJARNI_SAEMUN,North
2019-06-11T06:00:00Z,1560232800,2019,6,0,162.25,162.25,65.106,-33.958,1031.0,7.95,-999.0,yes,yes,no,300234065716150,BD2GHI,AOML,BJARNI_SAEMUN,North
2019-06-11T07:00:28Z,1560236429,2019,7,0,162.292,162.292,65.107,-33.969,1031.3,7.94,-999.0,yes,yes,no,300234065716150,BD2GHI,AOML,BJARNI_SAEMUN,North
2019-06-11T07:59:31Z,1560239971,2019,8,0,162.333,162.333,65.107,-33.982,1031.4,7.96,-999.0,yes,yes,no,300234065716150,BD2GHI,AOML,BJARNI_SAEMUN,North
2019-06-11T09:00:00Z,1560243600,2019,9,0,162.375,162.375,65.112,-33.988,1031.3,7.99,-999.0,yes,yes,no,300234065716150,BD2GHI,AOML,BJARNI_SAEMUN,North
2019-06-11T10:00:28Z,1560247229,2019,10,1,162.417,162.417,65.114,-33.999,1031.4,7.99,-999.0,yes,yes,no,300234065716150,BD2GHI,AOML,BJARNI_SAEMUN,North
2019-06-11T11:02:24Z,1560250944,2019,11,3,162.46,162.46,65.116,-34.003,1031.4,7.99,-999.0,yes,yes,no,300234065716150,BD2GHI,AOML,BJARNI_SAEMUN,North
2019-06-11T12:00:00Z,1560254400,2019,12,0,162.5,162.5,65.118,-34.009,1031.1,8.01,-999.0,yes,yes,no,300234065716150,BD2GHI,AOML,BJARNI_SAEMUN,North
2019-06-11T13:00:28Z,1560258029,2019,13,0,162.542,162.542,65.12,-34.014,1031.1,7.98,-999.0,yes,yes,no,300234065716150,BD2GHI,AOML,BJARNI_SAEMUN,North
2019-06-11T14:03:50Z,1560261830,2019,14,4,162.586,162.586,65.116,-34.021,1031.3,7.97,-999.0,yes,yes,no,300234065716150,BD2GHI,AOML,BJARNI_SAEMUN,North
2019-06-11T15:02:52Z,1560265373,2019,15,3,162.627,162.627,65.122,-34.017,1030.9,7.96,-999.0,yes,yes,no,300234065716150,BD2GHI,AOML,BJARNI_SAEMUN,North
2019-06-11T16:00:28Z,1560268829,2019,16,0,162.667,162.667,65.123,-34.016,1031.1,7.9,-999.0,yes,yes,no,300234065716150,BD2GHI,AOML,BJARNI_SAEMUN,North
2019-06-11T16:59:31Z,1560272371,2019,17,0,162.708,162.708,65.125,-34.017,1031.4,7.9,-999.0,yes,yes,no,300234065716150,BD2GHI,AOML,BJARNI_SAEMUN,North
2019-06-11T18:00:00Z,1560276000,2019,18,0,162.75,162.75,65.125,-34.01,1031.5,7.89,-999.0,yes,yes,no,300234065716150,BD2GHI,AOML,BJARNI_SAEMUN,North
2019-06-11T19:00:28Z,1560279629,2019,19,0,162.792,162.792,65.123,-34.008,1031.9,7.87,-999.0,yes,yes,no,300234065716150,BD2GHI,AOML,BJARNI_SAEMUN,North
2019-06-11T19:59:31Z,1560283171,2019,20,0,162.833,162.833,65.124,-34.007,1031.6,7.85,-999.0,yes,yes,no,300234065716150,BD2GHI,AOML,BJARNI_SAEMUN,North
2019-06-11T21:00:00Z,1560286800,2019,21,0,162.875,162.875,65.126,-34.008,1032.9,7.85,-999.0,yes,yes,no,300234065716150,BD2GHI,AOML,BJARNI_SAEMUN,North
2019-06-11T22:00:28Z,1560290429,2019,22,0,162.917,162.917,65.126,-34.006,1033.4,7.84,-999.0,yes,yes,no,300234065716150,BD2GHI,AOML,BJARNI_SAEMUN,North
2019-06-11T22:59:31Z,1560293971,2019,23,0,162.958,162.958,65.124,-34.005,1033.7,7.85,-999.0,yes,yes,no,300234065716150,BD2GHI,AOML,BJARNI_SAEMUN,North
2019-06-12T00:00:00Z,1560297600,2019,0,0,163.0,163.0,65.126,-34.004,1033.9,7.85,-999.0,yes,yes,no,300234065716150,BD2GHI,AOML,BJARNI_SAEMUN,North
2019-06-12T01:00:28Z,1560301229,2019,1,0,163.042,163.042,65.126,-34.006,1033.8,7.85,-999.0,yes,yes,no,300234065716150,BD2GHI,AOML,BJARNI_SAEMUN,North
2019-06-12T02:02:24Z,1560304944,2019,2,2,163.085,163.085,65.122,-34.008,1034.0,7.85,-999.0,yes,yes,no,300234065716150,BD2GHI,AOML,BJARNI_SAEMUN,North
2019-06-12T03:00:00Z,1560308400,2019,3,0,163.125,163.125,65.123,-34.014,1033.9,7.84,-999.0,yes,yes,no,300234065716150,BD2GHI,AOML,BJARNI_SAEMUN,North
2019-06-12T04:00:28Z,1560312029,2019,4,1,163.167,163.167,65.12,-34.024,1033.6,7.84,-999.0,yes,yes,no,300234065716150,BD2GHI,AOML,BJARNI_SAEMUN,North
2019-06-12T04:59:31Z,1560315571,2019,5,0,163.208,163.208,65.124,-34.031,1033.7,7.84,-999.0,yes,yes,no,300234065716150,BD2GHI,AOML,BJARNI_SAEMUN,North
2019-06-12T06:01:26Z,1560319286,2019,6,1,163.251,163.251,65.128,-34.04,1033.7,7.84,-999.0,yes,yes,no,300234065716150,BD2GHI,AOML,BJARNI_SAEMUN,North
2019-06-12T07:00:28Z,1560322829,2019,7,0,163.292,163.292,65.131,-34.04,1034.1,7.84,-999.0,yes,yes,no,300234065716150,BD2GHI,AOML,BJARNI_SAEMUN,North
2019-06-12T07:59:31Z,1560326371,2019,8,0,163.333,163.333,65.133,-34.037,1034.1,7.84,-999.0,yes,yes,no,300234065716150,BD2GHI,AOML,BJARNI_SAEMUN,North
2019-06-12T09:00:00Z,1560330000,2019,9,0,163.375,163.375,65.14,-34.033,1034.4,7.88,-999.0,yes,yes,no,300234065716150,BD2GHI,AOML,BJARNI_SAEMUN,North
2019-06-12T10:03:21Z,1560333802,2019,10,4,163.419,163.419,65.139,-34.029,1034.7,7.9,-999.0,yes,yes,no,300234065716150,BD2GHI,AOML,BJARNI_SAEMUN,North
2019-06-12T10:59:31Z,1560337171,2019,11,0,163.458,163.458,65.137,-34.028,1034.8,7.99,-999.0,yes,yes,no,300234065716150,BD2GHI,AOML,BJARNI_SAEMUN,North
2019-06-12T12:00:00Z,1560340800,2019,12,0,163.5,163.5,65.134,-34.03,1035.2,8.08,-999.0,yes,yes,no,300234065716150,BD2GHI,AOML,BJARNI_SAEMUN,North
2019-06-12T13:00:28Z,1560344429,2019,13,0,163.542,163.542,65.132,-34.036,1035.1,8.29,-999.0,yes,yes,no,300234065716150,BD2GHI,AOML,BJARNI_SAEMUN,North
2019-06-12T14:02:24Z,1560348144,2019,14,2,163.585,163.585,65.129,-34.046,1035.2,8.48,-999.0,yes,yes,no,300234065716150,BD2GHI,AOML,BJARNI_SAEMUN,North
2019-06-12T15:00:00Z,1560351600,2019,15,0,163.625,163.625,65.126,-34.055,1035.2,8.54,-999.0,yes,yes,no,300234065716150,BD2GHI,AOML,BJARNI_SAEMUN,North
2019-06-12T16:00:28Z,1560355229,2019,16,0,163.667,163.667,65.122,-34.066,1035.2,8.37,-999.0,yes,yes,no,300234065716150,BD2GHI,AOML,BJARNI_SAEMUN,North
2019-06-12T16:59:31Z,1560358771,2019,17,0,163.708,163.708,65.118,-34.074,1035.2,8.45,-999.0,yes,yes,no,300234065716150,BD2GHI,AOML,BJARNI_SAEMUN,North
2019-06-12T18:00:00Z,1560362400,2019,18,0,163.75,163.75,65.114,-34.083,1035.5,8.35,-999.0,yes,yes,no,300234065716150,BD2GHI,AOML,BJARNI_SAEMUN,North
2019-06-12T19:00:28Z,1560366029,2019,19,0,163.792,163.792,65.11,-34.096,1035.5,8.22,-999.0,yes,yes,no,300234065716150,BD2GHI,AOML,BJARNI_SAEMUN,North
2019-06-12T19:59:31Z,1560369571,2019,20,0,163.833,163.833,65.107,-34.112,1034.9,8.17,-999.0,yes,yes,no,300234065716150,BD2GHI,AOML,BJARNI_SAEMUN,North
2019-06-12T21:00:00Z,1560373200,2019,21,0,163.875,163.875,65.106,-34.132,1034.9,8.1,-999.0,yes,yes,no,300234065716150,BD2GHI,AOML,BJARNI_SAEMUN,North
2019-06-12T22:00:28Z,1560376829,2019,22,0,163.917,163.917,65.108,-34.152,1034.9,8.11,-999.0,yes,yes,no,300234065716150,BD2GHI,AOML,BJARNI_SAEMUN,North
2019-06-12T22:59:31Z,1560380371,2019,23,0,163.958,163.958,65.11,-34.172,1034.4,8.01,-999.0,yes,yes,no,300234065716150,BD2GHI,AOML,BJARNI_SAEMUN,North
2019-06-13T00:00:00Z,1560384000,2019,0,0,164.0,164.0,65.116,-34.185,1033.8,7.98,-999.0,yes,yes,no,300234065716150,BD2GHI,AOML,BJARNI_SAEMUN,North
2019-06-13T01:00:28Z,1560387629,2019,1,0,164.042,164.042,65.121,-34.194,1033.7,7.99,-999.0,yes,yes,no,300234065716150,BD2GHI,AOML,BJARNI_SAEMUN,North
2019-06-13T01:59:31Z,1560391171,2019,2,0,164.083,164.083,65.128,-34.202,1033.1,7.98,-999.0,yes,yes,no,300234065716150,BD2GHI,AOML,BJARNI_SAEMUN,North
2019-06-13T03:00:00Z,1560394800,2019,3,0,164.125,164.125,65.133,-34.204,1032.8,7.96,-999.0,yes,yes,no,300234065716150,BD2GHI,AOML,BJARNI_SAEMUN,North
2019-06-13T04:00:28Z,1560398429,2019,4,0,164.167,164.167,65.137,-34.202,1032.3,7.95,-999.0,yes,yes,no,300234065716150,BD2GHI,AOML,BJARNI_SAEMUN,North
2019-06-13T04:59:31Z,1560401971,2019,5,0,164.208,164.208,65.142,-34.203,1031.8,7.95,-999.0,yes,yes,no,300234065716150,BD2GHI,AOML,BJARNI_SAEMUN,North
2019-06-13T06:00:00Z,1560405600,2019,6,0,164.25,164.25,65.146,-34.2,1031.7,7.95,-999.0,yes,yes,no,300234065716150,BD2GHI,AOML,BJARNI_SAEMUN,North
2019-06-13T07:00:28Z,1560409229,2019,7,0,164.292,164.292,65.149,-34.195,1031.4,7.95,-999.0,yes,yes,no,300234065716150,BD2GHI,AOML,BJARNI_SAEMUN,North
2019-06-13T07:59:31Z,1560412771,2019,8,0,164.333,164.333,65.152,-34.193,1031.7,7.95,-999.0,yes,yes,no,300234065716150,BD2GHI,AOML,BJARNI_SAEMUN,North
2019-06-13T09:00:00Z,1560416400,2019,9,0,164.375,164.375,65.156,-34.19,1031.3,7.91,-999.0,yes,yes,no,300234065716150,BD2GHI,AOML,BJARNI_SAEMUN,North
2019-06-13T10:00:28Z,1560420029,2019,10,0,164.417,164.417,65.16,-34.187,1030.8,7.89,-999.0,yes,yes,no,300234065716150,BD2GHI,AOML,BJARNI_SAEMUN,North
2019-06-13T10:59:31Z,1560423571,2019,11,0,164.458,164.458,65.165,-34.183,1030.5,7.91,-999.0,yes,yes,no,300234065716150,BD2GHI,AOML,BJARNI_SAEMUN,North
2019-06-13T12:00:00Z,1560427200,2019,12,0,164.5,164.5,65.171,-34.177,1030.0,7.98,-999.0,yes,yes,no,300234065716150,BD2GHI,AOML,BJARNI_SAEMUN,North
2019-06-13T13:00:28Z,1560430829,2019,13,0,164.542,164.542,65.176,-34.167,1029.6,7.87,-999.0,yes,yes,no,300234065716150,BD2GHI,AOML,BJARNI_SAEMUN,North
2019-06-13T13:59:31Z,1560434371,2019,14,0,164.583,164.583,65.178,-34.153,1029.3,7.94,-999.0,yes,yes,no,300234065716150,BD2GHI,AOML,BJARNI_SAEMUN,North
2019-06-13T15:00:00Z,1560438000,2019,15,0,164.625,164.625,65.178,-34.141,1028.7,8.02,-999.0,yes,yes,no,300234065716150,BD2GHI,AOML,BJARNI_SAEMUN,North
2019-06-13T16:00:28Z,1560441629,2019,16,0,164.667,164.667,65.175,-34.13,1028.2,8.01,-999.0,yes,yes,no,300234065716150,BD2GHI,AOML,BJARNI_SAEMUN,North
2019-06-13T16:59:31Z,1560445171,2019,17,0,164.708,164.708,65.172,-34.117,1028.1,8.07,-999.0,yes,yes,no,300234065716150,BD2GHI,AOML,BJARNI_SAEMUN,North
2019-06-13T18:00:00Z,1560448800,2019,18,0,164.75,164.75,65.164,-34.113,1027.7,8.03,-999.0,yes,yes,no,300234065716150,BD2GHI,AOML,BJARNI_SAEMUN,North
2019-06-13T19:00:28Z,1560452429,2019,19,0,164.792,164.792,65.158,-34.106,1027.7,8.16,-999.0,yes,yes,no,300234065716150,BD2GHI,AOML,BJARNI_SAEMUN,North
2019-06-13T19:59:31Z,1560455971,2019,20,0,164.833,164.833,65.151,-34.11,1027.2,8.18,-999.0,yes,yes,no,300234065716150,BD2GHI,AOML,BJARNI_SAEMUN,North
2019-06-13T21:00:00Z,1560459600,2019,21,0,164.875,164.875,65.149,-34.119,1026.9,8.11,-999.0,yes,yes,no,300234065716150,BD2GHI,AOML,BJARNI_SAEMUN,North
2019-06-13T22:00:28Z,1560463229,2019,22,0,164.917,164.917,65.154,-34.132,1026.9,7.95,-999.0,yes,yes,no,300234065716150,BD2GHI,AOML,BJARNI_SAEMUN,North
2019-06-13T22:59:31Z,1560466771,2019,23,0,164.958,164.958,65.155,-34.14,1026.6,7.76,-999.0,yes,yes,no,300234065716150,BD2GHI,AOML,BJARNI_SAEMUN,North
2019-06-14T00:00:00Z,1560470400,2019,0,0,165.0,165.0,65.16,-34.143,1026.5,7.69,-999.0,yes,yes,no,300234065716150,BD2GHI,AOML,BJARNI_SAEMUN,North
2019-06-14T01:00:28Z,1560474029,2019,1,0,165.042,165.042,65.164,-34.146,1026.1,7.61,-999.0,yes,yes,no,300234065716150,BD2GHI,AOML,BJARNI_SAEMUN,North
2019-06-14T01:59:31Z,1560477571,2019,2,0,165.083,165.083,65.169,-34.144,1025.4,7.51,-999.0,yes,yes,no,300234065716150,BD2GHI,AOML,BJARNI_SAEMUN,North
2019-06-14T03:00:00Z,1560481200,2019,3,0,165.125,165.125,65.17,-34.141,1024.8,7.39,-999.0,yes,yes,no,300234065716150,BD2GHI,AOML,BJARNI_SAEMUN,North
2019-06-14T04:00:28Z,1560484829,2019,4,0,165.167,165.167,65.168,-34.136,1024.4,7.29,-999.0,yes,yes,no,300234065716150,BD2GHI,AOML,BJARNI_SAEMUN,North
2019-06-14T04:59:31Z,1560488371,2019,5,0,165.208,165.208,65.167,-34.132,1024.0,7.32,-999.0,yes,yes,no,300234065716150,BD2GHI,AOML,BJARNI_SAEMUN,North
2019-06-14T06:00:00Z,1560492000,2019,6,0,165.25,165.25,65.168,-34.129,1023.7,7.46,-999.0,yes,yes,no,300234065716150,BD2GHI,AOML,BJARNI_SAEMUN,North
2019-06-14T07:00:28Z,1560495629,2019,7,0,165.292,165.292,65.168,-34.123,1023.8,7.54,-999.0,yes,yes,no,300234065716150,BD2GHI,AOML,BJARNI_SAEMUN,North
2019-06-14T07:59:31Z,1560499171,2019,8,0,165.333,165.333,65.169,-34.116,1023.9,7.61,-999.0,yes,yes,no,300234065716150,BD2GHI,AOML,BJARNI_SAEMUN,North
2019-06-14T09:00:00Z,1560502800,2019,9,0,165.375,165.375,65.171,-34.11,1024.0,7.64,-999.0,yes,yes,no,300234065716150,BD2GHI,AOML,BJARNI_SAEMUN,North
2019-06-14T10:00:28Z,1560506429,2019,10,0,165.417,165.417,65.174,-34.106,1024.2,7.66,-999.0,yes,yes,no,300234065716150,BD2GHI,AOML,BJARNI_SAEMUN,North
2019-06-14T10:59:31Z,1560509971,2019,11,0,165.458,165.458,65.176,-34.102,1023.9,7.68,-999.0,yes,yes,no,300234065716150,BD2GHI,AOML,BJARNI_SAEMUN,North
2019-06-14T12:00:00Z,1560513600,2019,12,0,165.5,165.5,65.177,-34.092,1023.7,7.69,-999.0,yes,yes,no,300234065716150,BD2GHI,AOML,BJARNI_SAEMUN,North
2019-06-14T13:00:28Z,1560517229,2019,13,0,165.542,165.542,65.177,-34.081,1023.7,7.73,-999.0,yes,yes,no,300234065716150,BD2GHI,AOML,BJARNI_SAEMUN,North
2019-06-14T13:59:31Z,1560520771,2019,14,0,165.583,165.583,65.173,-34.073,1023.5,7.76,-999.0,yes,yes,no,300234065716150,BD2GHI,AOML,BJARNI_SAEMUN,North
2019-06-14T15:00:00Z,1560524400,2019,15,0,165.625,165.625,65.169,-34.061,1023.2,7.85,-999.0,yes,yes,no,300234065716150,BD2GHI,AOML,BJARNI_SAEMUN,North
2019-06-14T16:00:28Z,1560528029,2019,16,0,165.667,165.667,65.16,-34.054,1023.0,7.93,-999.0,yes,yes,no,300234065716150,BD2GHI,AOML,BJARNI_SAEMUN,North
2019-06-14T16:59:31Z,1560531571,2019,17,0,165.708,165.708,65.15,-34.05,1023.1,7.97,-999.0,yes,yes,no,300234065716150,BD2GHI,AOML,BJARNI_SAEMUN,North
2019-06-14T18:00:00Z,1560535200,2019,18,0,165.75,165.75,65.143,-34.053,1022.9,7.99,-999.0,yes,yes,no,300234065716150,BD2GHI,AOML,BJARNI_SAEMUN,North
2019-06-14T19:00:28Z,1560538829,2019,19,0,165.792,165.792,65.133,-34.048,1022.7,7.96,-999.0,yes,yes,no,300234065716150,BD2GHI,AOML,BJARNI_SAEMUN,North
2019-06-14T19:59:31Z,1560542371,2019,20,0,165.833,165.833,65.122,-34.05,1022.9,7.99,-999.0,yes,yes,no,300234065716150,BD2GHI,AOML,BJARNI_SAEMUN,North